User: anonymous   Login
Location: NJAA Observatory
(40.6819°N, 74.8979°W)
Time: 16:51:24
(UTC-05:00)
Language:

Cosmos 1633 - Orbit

View from above orbital plane
View from above orbital plane
View from above satellite
View from above satellite

Ground track
Ground track

The orbit data is extracted from the following two-line orbital elements,

1 15592U 85020A   14331.17385816  .00009193  00000-0  41551-3 0  6086
2 15592 082.5394 170.1798 0015524 220.8109 255.3755 15.20700905622031
Epoch (UTC): 27 November 2014 04:10:21
Eccentricity: 0.0015524
inclination: 82.5394°
perigee height: 493 km
apogee height: 514 km
right ascension of ascending node: 170.1798°
argument of perigee: 220.8109°
revolutions per day: 15.20700905
mean anomaly at epoch: 255.3755°
orbit number at epoch: 62203

The dashed part of the orbit path shows where the satellite is in the earth's shadow,  

DLR